TimeEDT,TemperatureF,Dew PointF,Humidity,Sea Level PressureIn,VisibilityMPH,Wind Direction,Wind SpeedMPH,Gust SpeedMPH,PrecipitationIn,Events,Conditions,WindDirDegrees,DateUTC
12:51 AM,29.1,27.1,92,30.38,10.0,Calm,Calm,-,N/A,,Clear,0,2011-11-02 04:51:00
1:51 AM,29.1,28.0,96,30.38,8.0,Calm,Calm,-,N/A,,Clear,0,2011-11-02 05:51:00
2:51 AM,28.0,27.1,96,30.38,9.0,Calm,Calm,-,N/A,,Clear,0,2011-11-02 06:51:00
3:51 AM,26.1,24.1,92,30.39,10.0,Calm,Calm,-,N/A,,Clear,0,2011-11-02 07:51:00
4:51 AM,26.1,23.0,88,30.40,10.0,Calm,Calm,-,N/A,,Clear,0,2011-11-02 08:51:00
5:51 AM,27.1,25.2,92,30.42,9.0,Calm,Calm,-,N/A,,Clear,0,2011-11-02 09:51:00
7:51 AM,26.1,24.1,92,30.44,10.0,Calm,Calm,-,N/A,,Clear,0,2011-11-02 11:51:00
8:51 AM,30.0,27.1,89,30.44,10.0,Calm,Calm,-,N/A,,Clear,0,2011-11-02 12:51:00
10:51 AM,39.9,32.0,73,30.42,10.0,Calm,Calm,-,N/A,,Clear,0,2011-11-02 14:51:00
11:51 AM,45.9,34.9,66,30.40,10.0,Calm,Calm,-,N/A,,Clear,0,2011-11-02 15:51:00
12:51 PM,50.9,34.0,52,30.37,10.0,Variable,3.5,-,N/A,,Clear,0,2011-11-02 16:51:00
1:51 PM,52.9,34.9,50,30.34,10.0,Calm,Calm,-,N/A,,Clear,0,2011-11-02 17:51:00
2:51 PM,54.9,32.9,43,30.32,10.0,South,4.6,-,N/A,,Clear,170,2011-11-02 18:51:00
3:51 PM,54.9,32.9,43,30.31,10.0,Calm,Calm,-,N/A,,Clear,0,2011-11-02 19:51:00
4:51 PM,46.9,36.0,66,30.31,10.0,Calm,Calm,-,N/A,,Clear,0,2011-11-02 20:51:00
5:51 PM,43.0,36.0,76,30.30,10.0,Calm,Calm,-,N/A,,Clear,0,2011-11-02 21:51:00
6:51 PM,39.9,34.9,82,30.30,10.0,Calm,Calm,-,N/A,,Clear,0,2011-11-02 22:51:00
7:51 PM,38.8,34.0,83,30.31,10.0,Calm,Calm,-,N/A,,Clear,0,2011-11-02 23:51:00
8:51 PM,36.9,34.9,93,30.30,10.0,Calm,Calm,-,N/A,,Clear,0,2011-11-03 00:51:00
9:51 PM,34.9,32.0,89,30.28,10.0,Calm,Calm,-,N/A,,Clear,0,2011-11-03 01:51:00
10:51 PM,32.0,30.0,92,30.26,9.0,Calm,Calm,-,N/A,,Clear,0,2011-11-03 02:51:00
11:51 PM,32.0,30.0,92,30.25,9.0,Calm,Calm,-,N/A,,Clear,0,2011-11-03 03:51:00